This demonstration page uses our WeatherBlox Daily Observations layout. Learn more.

Left ArrowRight Arrow

41.55636, -103.73856

Hourly Observations for June 19, 2021

Temp ( °F °C ) Dew Point ( °F °C ) Humidity (%) Winds ( mph kmh ) Pressure ( in mb ) Visibility ( mi km ) Precip ( " mm )
12:58 am 00:58 Partly Cloudy 67 19.6 55 12.6 64 64 SSE 3 6 29.88 1012 10 16 N/A
1:58 am 01:58 Clear 65 18.6 54 12.3 67 67 SSE 10 17 29.86 1011 10 16 N/A
2:58 am 02:58 Clear 65 18.5 54 12.4 68 68 SSE 14 22 29.86 1011 10 16 N/A
3:58 am 03:58 Clear 64 17.8 55 12.8 73 73 S 13 20 29.85 1011 10 16 N/A
4:58 am 04:58 Clear 63 17.1 58 14.2 83 83 S 10 17 29.86 1011 10 16 N/A
5:58 am 05:58 Sunny 64 17.6 57 13.9 79 79 N N/A 29.85 1011 10 16 N/A
6:58 am 06:58 Sunny 67 19.4 61 16 81 81 S 8 13 29.84 1011 10 16 N/A
7:58 am 07:58 Sunny 68 20.1 61 16.2 78 78 SSE 13 20 29.84 1010 10 16 N/A
8:58 am 08:58 Sunny 73 22.6 60 15.8 66 66 S 15 24 29.83 1010 10 16 N/A
9:58 am 09:58 Sunny 78 25.4 60 15.7 55 55 S 18 30 29.81 1010 10 16 N/A
10:58 am 10:58 Mostly Sunny 81 27.2 58 14.4 45 45 SSW 22 35 29.78 1009 10 16 N/A
11:58 am 11:58 Sunny 86 30 56 13.6 37 37 SSW 18 30 29.78 1009 10 16 N/A
12:58 pm 12:58 Sunny 90 32.1 51 10.5 26 26 SW 15 24 29.75 1007 10 16 N/A
1:58 pm 13:58 Mostly Cloudy with Light Rain 84 29 46 8 27 27 W 18 30 29.75 1007 10 16 0.01 0.25
2:58 pm 14:58 Mostly Cloudy 76 24.5 54 12.3 47 47 SSE 3 6 29.75 1008 10 16 0.01 0.25
3:58 pm 15:58 Mostly Cloudy 86 30.2 39 3.7 18 18 NW 15 24 29.71 1006 10 16 N/A
4:58 pm 16:58 Mostly Sunny 87 30.6 37 2.7 17 17 S 6 9 29.66 1004 10 16 N/A
5:58 pm 17:58 Mostly Sunny 86 29.8 44 6.6 23 23 SSW 14 22 29.65 1004 10 16 N/A
6:58 pm 18:58 Sunny 72 22.4 52 11 49 49 SSE 23 37 29.67 1005 10 16 N/A
7:58 pm 19:58 Mostly Cloudy 71 21.5 51 10.8 51 51 SSE 32 52 29.65 1004 10 16 N/A
8:58 pm 20:58 Clear 66 19 53 11.9 64 64 S 29 46 29.64 1004 10 16 N/A
9:58 pm 21:58 Mostly Cloudy 67 19.6 53 11.5 60 60 SSW 30 48 29.63 1004 10 16 N/A
10:58 pm 22:58 Mostly Clear 65 18.1 51 10.6 62 62 SSW 28 44 29.63 1004 10 16 N/A
11:58 pm 23:58 Clear 65 18.1 52 11.1 64 64 SSW 26 43 29.62 1003 10 16 N/A

Powered by AerisWeather